User: anonymous   Login
Location: Melbourne
(37.8170°S, 144.9670°E)
Time: 03:02:00
(UTC+11:00)
Language:

CZ-3 R/B - Orbit

View from above orbital plane
View from above orbital plane
View from above satellite
View from above satellite

Ground track
Ground track

The orbit data is extracted from the following two-line orbital elements,

1 29517U 06048B   15086.89750831  .00135918  58940-7  16065-2 0  9993
2 29517 028.4945 272.9720 5059779 102.5513 021.1427 05.67016835115067
Epoch (UTC): 27 March 2015 21:32:24
Eccentricity: 0.5059779
inclination: 28.4945°
perigee height: 184 km
apogee height: 13627 km
right ascension of ascending node: 272.9720°
argument of perigee: 102.5513°
revolutions per day: 5.67016835
mean anomaly at epoch: 21.1427°
orbit number at epoch: 11506

The dashed part of the orbit path shows where the satellite is in the earth's shadow,  

DLR